User: anonymous   Login
Location: Montr�al
(45.5000°N, 73.5830°W)
Time: 17:36:33
(UTC-05:00)
Language:

Cosmos 2369 - Orbit

View from above orbital plane
View from above orbital plane
View from above satellite
View from above satellite

Ground track
Ground track

The orbit data is extracted from the following two-line orbital elements,

1 26069U 00006A   15031.23965694  .00000234  00000-0  15005-3 0  4553
2 26069 070.9950 017.2068 0009601 111.3396 338.8372 14.13265183773497
Epoch (UTC): 31 January 2015 05:45:06
Eccentricity: 0.0009601
inclination: 70.9950°
perigee height: 841 km
apogee height: 855 km
right ascension of ascending node: 17.2068°
argument of perigee: 111.3396°
revolutions per day: 14.13265183
mean anomaly at epoch: 338.8372°
orbit number at epoch: 77349

The dashed part of the orbit path shows where the satellite is in the earth's shadow,  

DLR